Location: Newark
(43.0000°N, 1.6781°W)
Time: 09:05:15
(UTC+00:00)

VELOX 1 - Visible Passes

Search period start: 26 November 2022 00:00
Search period end: 06 December 2022 00:00
Orbit: 622 x 637 km, 98.4° (Epoch: 25 November)

Date Brightness Start Highest point End Pass type
(mag) Time Alt. Az. Time Alt. Az. Time Alt. Az.
26 Nov ? 03:58:00 10° ESE 04:00:54 17° ENE 04:02:09 16° NE visible
26 Nov ? 05:32:30 10° S 05:36:46 49° W 05:39:30 21° NNW visible
26 Nov ? 17:20:31 10° NE 17:24:09 25° E 17:27:46 10° SSE visible
26 Nov ? 18:56:35 10° N 19:00:23 30° WNW 19:04:10 10° SW visible
27 Nov ? 04:17:17 10° ESE 04:20:57 26° ENE 04:22:29 22° NE visible
27 Nov ? 05:53:12 10° SSW 05:57:05 30° W 05:59:49 16° NW visible
27 Nov ? 17:40:22 10° NNE 17:44:29 41° E 17:48:35 10° S visible
27 Nov ? 19:17:19 10° NNW 19:20:27 20° WNW 19:23:35 10° WSW visible
28 Nov ? 04:36:55 10° SE 04:41:03 41° ENE 04:42:47 28° NNE visible
28 Nov ? 06:14:20 10° SW 06:17:28 19° W 06:20:09 12° NW visible
28 Nov ? 18:00:25 10° NNE 18:04:46 69° ESE 18:09:05 10° S visible
28 Nov ? 19:38:31 10° NW 19:40:28 13° WNW 19:42:23 10° W visible
29 Nov ? 04:56:51 10° SSE 05:01:12 68° ENE 05:03:07 33° N visible
29 Nov ? 06:36:20 10° WSW 06:37:54 12° W 06:39:27 10° WNW visible
29 Nov ? 18:20:38 10° N 18:24:59 72° WNW 18:29:18 10° SSW visible
30 Nov ? 03:44:00 10° E 03:45:46 12° ENE 03:46:05 12° NE visible
30 Nov ? 05:17:02 10° S 05:21:25 74° WSW 05:23:27 31° NNW visible
30 Nov ? 17:05:45 10° NE 17:08:41 17° E 17:11:35 10° SE visible
30 Nov ? 18:41:10 11° N 18:45:09 44° WNW 18:49:15 10° SW visible
01 Dec ? 04:02:42 10° ESE 04:05:45 19° ENE 04:06:25 18° NE visible
01 Dec ? 05:37:28 10° S 05:41:41 44° W 05:43:46 26° NW visible
01 Dec ? 17:25:18 10° NE 17:29:03 28° E 17:32:47 10° SSE visible
01 Dec ? 19:01:43 11° N 19:05:14 28° WNW 19:08:55 10° SW visible
02 Dec ? 04:22:02 10° SE 04:25:48 29° ENE 04:26:45 26° NE visible
02 Dec ? 05:58:14 10° SSW 06:01:59 27° W 06:04:06 19° NW visible
02 Dec ? 17:45:10 10° NNE 17:49:22 45° E 17:53:31 10° S visible
02 Dec ? 19:22:19 10° NNW 19:25:16 18° WNW 19:28:12 10° WSW visible
03 Dec ? 04:41:43 10° SE 04:45:53 45° ENE 04:47:05 36° NNE visible
03 Dec ? 06:19:26 10° SW 06:22:21 17° W 06:24:26 13° WNW visible
03 Dec ? 18:05:24 11° NNE 18:09:36 76° ESE 18:13:56 10° S visible
03 Dec ? 19:43:41 10° NW 19:45:14 12° WNW 19:46:48 10° W visible
04 Dec ? 05:01:40 10° SSE 05:06:02 74° ENE 05:07:25 43° N visible
04 Dec ? 06:41:56 10° W 06:42:47 10° W 06:43:37 10° WNW visible
04 Dec ? 18:25:55 13° N 18:29:48 66° WNW 18:34:05 10° SSW visible
05 Dec ? 03:48:27 10° E 03:50:23 13° ENE 03:50:23 13° ENE visible
05 Dec ? 05:21:52 10° S 05:26:14 68° WSW 05:27:45 39° NNW visible
05 Dec ? 17:10:24 10° NE 17:13:31 19° E 17:16:36 10° SE visible
05 Dec ? 18:46:24 13° N 18:49:55 40° WNW 18:53:58 10° SW visible
